Regional Weather Roundup
Issued by NWS San Angelo, TX

Home | Current Version | Previous Version | Text Only | Print | Product List | Glossary On
Versions: 1 2 3 4 5 6 7 8 9 10 11 12 13 14 15 16 17 18 19 20 21 22 23 24 25 26 27 28 29 30 31 32 33 34 35 36 37 38 39 40 41 42 43 44 45 46 47 48 49 50
000
ASUS44 KSJT 301410
RWRSJT
WEST CENTRAL TEXAS REGIONAL WEATHER ROUNDUP
NATIONAL WEATHER SERVICE SAN ANGELO TX
900 AM CDT THU OCT 30 2014

NOTE: "FAIR" INDICATES FEW OR NO CLOUDS BELOW 12,000 FEET WITH NO
SIGNIFICANT WEATHER AND/OR OBSTRUCTIONS TO VISIBILITY.

TXZ049-054-064>066-071>073-076>078-098-099-113-114-127-128-139-140-
154-155-168>170-301500
...LOCATIONS ACROSS WEST CENTRAL TEXAS...

CITY           SKY/WX    TMP DP  RH WIND       PRES   REMARKS
SAN ANGELO     SUNNY     59  54  83 CALM      30.13R
ABILENE        SUNNY     60  53  77 S12       30.13R
DYESS AFB      SUNNY     61  54  77 SE10      30.11S
JUNCTION       PTSUNNY   58  56  93 CALM      30.15R
SWEETWATER     SUNNY     61  57  87 S9        30.15R
BROWNWOOD      PTSUNNY   57  54  88 CALM      30.16R
COLEMAN        SUNNY     58  53  86 CALM      30.15R
SONORA         MOSUNNY   61  61 100 S5        30.19R
OZONA          CLOUDY    61  61 100 S8        30.17R FOG
BRADY          CLOUDY    57  57 100 SE3       30.14R
$$

TEXAS PANHANDLE/OKLAHOMA PANHANDLE

CITY           SKY/WX    TMP DP  RH WIND       PRES   REMARKS
AMARILLO       CLEAR     47  44  90 N9        30.19R
BORGER         CLEAR     47  41  80 NW6       30.20R
CANADIAN       SUNNY     46  42  86 NW6       30.18R
DALHART        CLEAR     51  27  39 N20       30.26R
DUMAS            N/A     45  32  61 N16       30.22R WCI  38
GUYMON         NOT AVBL
HEREFORD       SUNNY     46  42  85 NW12      30.19R
PAMPA          SUNNY     48  43  84 N9        30.19R
PERRYTON       CLEAR     46  36  69 N9        30.21R
$$

SOUTHERN PANHANDLE/SOUTH PLAINS/ROLLING PLAINS

CITY           SKY/WX    TMP DP  RH WIND       PRES   REMARKS
LUBBOCK        CLEAR     50  46  86 NW6       30.14R
SNYDER         SUNNY     55  54  96 S7        30.13S
CHILDRESS      SUNNY     55  43  63 E5        30.14R
SEMINOLE       SUNNY     51  49  93 CALM      30.15R FOG
$$

PERMIAN BASIN

CITY           SKY/WX    TMP DP  RH WIND       PRES   REMARKS
MIDLAND        SUNNY     57  53  86 CALM      30.13R FOG
ODESSA         SUNNY     58  54  86 W3        30.14R FOG
WINK           PTCLDY    51  46  83 N3        30.13S
$$

FAR WEST/SOUTHWEST MOUNTAINS/TRANS PECOS

CITY           SKY/WX    TMP DP  RH WIND       PRES   REMARKS
ALPINE         SUNNY     58  53  84 SW5       30.28R
DRYDEN           N/A     64  62  93 E6        30.13R
EL PASO        CLEAR     54  38  54 N9        30.21R
FORT STOCKTON  SUNNY     59  54  83 SW10      30.15R
GUADALUPE PASS CLEAR     57  43  59 W7        30.28R
MARFA          CLEAR     48  46  93 N5        30.26R
PECOS          SUNNY     50  47  90 CALM      30.15R
$$

DALLAS/FORT WORTH METROPLEX

CITY           SKY/WX    TMP DP  RH WIND       PRES   REMARKS
DFW AIRPORT    MOSUNNY   59  50  72 CALM      30.15R
FTW MEACHAM    SUNNY     59  48  67 SE6       30.15R
DAL-EXECUTIVE  SUNNY     59  49  69 S5        30.15R
GRAND PRAIRIE  SUNNY     59  48  67 MISG      30.16S
ADDISON        SUNNY     61  46  59 S9        30.16
MESQUITE       SUNNY     54  48  82 CALM      30.17R
LANCASTER      SUNNY     53  45  75 CALM      30.18R
$$

NORTH CENTRAL TEXAS

CITY           SKY/WX    TMP DP  RH WIND       PRES   REMARKS
SHRMAN/DENISON SUNNY     58  49  73 S7        30.16S
GAINESVILLE    SUNNY     53  46  79 S3        30.17R
BRIDGEPORT     SUNNY     53  47  82 CALM      30.17R
DENTON         SUNNY     53  48  83 CALM      30.15S
WAXAHACHIE     SUNNY     56  49  78 CALM      30.17R
GRANBURY       MOSUNNY   58  49  74 CALM      30.17R
$$

WESTERN NORTH TEXAS

CITY           SKY/WX    TMP DP  RH WIND       PRES   REMARKS
WICHITA FALLS  SUNNY     56  45  66 S5        30.14R
VERNON         PTSUNNY   55  43  62 CALM      30.15R
BRECKENRIDGE   MOSUNNY   61  50  67 MISG      30.13R
COMANCHE       CLOUDY    60  57  91 SE3       30.16R FOG
$$

CENTRAL AND SOUTH CENTRAL TEXAS

CITY           SKY/WX    TMP DP  RH WIND       PRES   REMARKS
AUSTIN/BERGSTM MOSUNNY   62  60  93 NE5       30.14R
WACO           PTSUNNY   57  51  80 E3        30.16R
HILLSBORO      MOSUNNY   61  48  62 SE8       30.16R
TEMPLE         PTSUNNY   59  50  72 E3        30.15R
KILLEEN-GRAY   CLOUDY    61  57  88 SE3       30.17R
FORT HOOD      CLOUDY    63  55  75 E3        30.16R
GEORGETOWN     CLOUDY    63  57  82 E5        30.15R
LAGO VISTA     PTSUNNY   64  55  71 SE5       30.16R
SAN MARCOS     SUNNY     63  55  77 NE6       30.16R
NEW BRAUNFELS  CLOUDY    65  60  84 NE6       30.13R
RANDOLPH AFB   CLOUDY    65  60  83 NE6       30.14R
SAN ANTONIO    CLOUDY    67  62  84 NE5       30.14R
STINSON        CLOUDY    68  62  81 E5        30.12R
PLEASANTON     NOT AVBL
LA GRANGE      PTSUNNY   63  59  86 CALM      30.12S
GIDDINGS       CLOUDY    59  57  92 E6        30.18S
$$

EAST TEXAS

CITY           SKY/WX    TMP DP  RH WIND       PRES   REMARKS
PARIS          SUNNY     52  41  66 CALM      30.18R
CLARKSVILLE    NOT AVBL
TYLER          SUNNY     56  49  77 SE7       30.16R
LONGVIEW       SUNNY     52  49  89 CALM      30.17R
PALESTINE      SUNNY     57  49  74 SE5       30.18R
NACOGDOCHES    SUNNY     48  45  87 CALM      30.18R
$$

TEXAS HILL COUNTRY AND EDWARDS PLATEAU

CITY           SKY/WX    TMP DP  RH WIND       PRES   REMARKS
LLANO          CLOUDY    63  61  94 CALM      30.18S
HORSESHOE BAY  CLOUDY    63  62  97 SE3       30.15S
KERRVILLE      CLOUDY    61  59  94 S3        30.16R FOG
FREDERICKSBRG  CLOUDY    63  61  93 S6        30.16R
ROCKSPRINGS    CLOUDY    63  63 100 MISG      30.18R FOG
HONDO          CLOUDY    63  63 100 E6        30.15S FOG
UVALDE         CLOUDY    65  64  94 E8        30.14R
DEL RIO        SUNNY     66  63  90 E9        30.11R FOG
$$

SOUTHEAST TEXAS

CITY           SKY/WX    TMP DP  RH WIND       PRES   REMARKS
COLLEGE STN    MOSUNNY   60  50  69 E7        30.15R
CALDWELL       SUNNY     59  54  82 E3        30.18R
CROCKETT       SUNNY     55  55 100 CALM      30.20R
BRENHAM        SUNNY     60  54  83 CALM      30.15R
HUNTSVILLE     SUNNY     55  52  89 E3        30.16R
CONROE         SUNNY     58  48  69 VRB3      30.16R
HOUSTON BUSH   MOSUNNY   61  50  67 NE7       30.14R
HOUSTON HOBBY  SUNNY     64  53  67 E6        30.12R
PERLAND        SUNNY     64  54  69 NE7       30.14R
WHARTON        NOT AVBL
$$

THE UPPER TEXAS COAST

CITY           SKY/WX    TMP DP  RH WIND       PRES   REMARKS
ORANGE         SUNNY     57  50  77 N5        30.16R
PORT ARTHUR    SUNNY     62  48  60 NE8       30.13R
GALVESTON      CLOUDY    69  60  73 NE13      30.12R
ANGLETON       CLOUDY    65  58  78 NE7       30.12R
BAY CITY         N/A     67  59  76 NE7       30.11R
$$

TEXAS COASTAL BEND, RIO GRANDE PLAINS DEEP SOUTH TEXAS

CITY           SKY/WX    TMP DP  RH WIND       PRES   REMARKS
VICTORIA       MOSUNNY   69  63  81 NE6       30.12R
BEEVILLE       FOG       67  67 100 NE5       30.11R VSB 1/4
ROCKPORT       MOSUNNY   73  70  90 NE10      30.09R FOG
PORT ARANSAS   SUNNY     74  71  91 NE7       30.09R
PORT LAVACA    CLOUDY    69  65  89 NE9       30.11R
CORPUS CHRISTI CLOUDY    73  71  93 NE9       30.09R FOG
KINGSVILLE NAS MOSUNNY   72  70  93 NE6       30.10R
COTULLA        SUNNY     68  64  87 E7        30.12R FOG
LAREDO         SUNNY     68  64  86 NE5       30.13R
BROWNSVILLE    SUNNY     74  70  87 CALM      30.08R
PORT ISABEL    SUNNY     75  71  87 CALM      30.08R FOG
HEBBRONVILLE   CLOUDY    63  62  97 CALM      30.12R VSB 1/4
MCALLEN        SUNNY     75  69  81 CALM      30.09R
WESLACO        SUNNY     71  67  86 CALM      30.08R FOG
FALFURRIAS     SUNNY     66  65  97 CALM      30.09R
EDINBURG       SUNNY     70  67  91 CALM      30.10R FOG
$$



USA.gov is the U.S. government's official web portal to all federal, state and local government web resources and services.